Location: De Greiden
(52.9496°N, 5.9137°E)
Time: 01:47:01
(UTC+00:00)

USA 281 - Pass Details

Date: 24 January 2021
Orbit: 1072 x 1086 km, 106.0° (Epoch: 22 February)

Event Time Altitude Azimuth Distance (km) Brightness Sun altitude
Exits shadow 18:07:16 23° 54° (NE) 2,147 4.3 -17.8°
Maximum altitude 18:08:45 25° 34° (NE) 2,057 4.3 -18.1°
Drops below altitude 10° 18:13:51 10° 343° (NNW) 2,941 5.6 -18.8°
Sets 18:16:50 0° 331° (NNW) 3,898 6.4 -19.3°
